Weather History for Renton, WA

Change the Weather History Date:

Tuesday, February 7, 2012

  Actual Average Record
Temperature  
Mean Temperature 54 °F -  
Max Temperature 61 °F 48 °F 62 °F (1998)
Min Temperature 46 °F 35 °F 26 °F (2014)
Degree Days  
Heating Degree Days 12    
Growing Degree Days 4 (Base 50)    
Moisture  
Dew Point 24 °F    
Average Humidity 32    
Maximum Humidity 52    
Minimum Humidity 22    
Precipitation  
Precipitation 0.00 in - - ()
Sea Level Pressure  
Sea Level Pressure 29.92 in    
Wind  
Wind Speed 7 mph (ESE)    
Max Wind Speed 14 mph    
Max Gust Speed 23 mph    
Visibility 10 miles    
Events Rain    
Averages and records for this station are not official NWS values.
T = Trace of Precipitation, MM = Missing Value Source: NWS Daily Summary

Daily Weather History Graph

Daily Weather History Graph

Search for Another Location

Airport:

Trip Planner

Search our weather history database for the weather conditions in past years. The results will help you decide how hot, cold, wet, or windy it might be!

Date:

Astronomy

Feb. 07, 2012 Rise Set
Actual Time 7:27 AM PST 5:19 PM PST
Civil Twilight 6:55 AM PST 5:51 PM PST
Nautical Twilight 6:18 AM PST 6:28 PM PST
Astronomical Twilight 5:42 AM PST 7:03 PM PST
Moon 5:41 PM PST (2/7) 6:56 AM PST (2/7)
Length of Visible Light 10h 56m
Length of Day
9h 51m
Full, 100% of the Moon is Illuminated
Feb 7
Full
Feb 7
Full
Feb 14
Last Quarter
Feb 21
New
Feb 29
First Quarter

Hourly Weather History & Observations

Time (PST) Temp. Dew Point Humidity Pressure Visibility Wind Dir Wind Speed Gust Speed Precip Events Conditions
12:53 AM 53.1 °F 23.0 °F 31% 29.91 in 10.0 mi East 5.8 mph 16.1 mph N/A   Clear
1:53 AM 46.9 °F 30.0 °F 52% 29.91 in 10.0 mi Calm Calm - N/A   Clear
2:53 AM 53.1 °F 23.0 °F 31% 29.91 in 10.0 mi East 9.2 mph 18.4 mph N/A   Clear
3:53 AM 52.0 °F 23.0 °F 32% 29.90 in 10.0 mi East 9.2 mph 17.3 mph N/A   Clear
4:53 AM 46.9 °F 28.0 °F 48% 29.89 in 10.0 mi Variable 6.9 mph - N/A   Clear
5:53 AM 52.0 °F 23.0 °F 32% 29.89 in 10.0 mi East 13.8 mph 23.0 mph N/A   Clear
6:53 AM 52.0 °F 21.9 °F 31% 29.88 in 10.0 mi East 8.1 mph - N/A   Clear
7:53 AM 50.0 °F 24.1 °F 36% 29.89 in 10.0 mi Variable 4.6 mph 17.3 mph N/A   Clear
8:53 AM 54.0 °F 23.0 °F 30% 29.90 in 10.0 mi East 10.4 mph 18.4 mph N/A   Clear
9:53 AM 55.9 °F 23.0 °F 28% 29.91 in 10.0 mi East 6.9 mph 19.6 mph N/A   Clear
10:53 AM 57.9 °F 21.9 °F 25% 29.90 in 10.0 mi East 10.4 mph 19.6 mph N/A   Clear
11:53 AM 60.1 °F 21.0 °F 22% 29.88 in 10.0 mi East 3.5 mph - N/A   Clear
12:53 PM 61.0 °F 21.9 °F 22% 29.87 in 10.0 mi ESE 8.1 mph 19.6 mph N/A   Clear
1:53 PM 60.1 °F 21.9 °F 23% 29.88 in 10.0 mi East 8.1 mph 18.4 mph N/A   Clear
2:53 PM 60.1 °F 21.9 °F 23% 29.89 in 10.0 mi East 9.2 mph 17.3 mph N/A   Clear
3:53 PM 57.9 °F 23.0 °F 26% 29.90 in 10.0 mi East 13.8 mph 20.7 mph N/A   Clear
4:53 PM 57.0 °F 21.9 °F 26% 29.91 in 10.0 mi East 10.4 mph 19.6 mph N/A   Partly Cloudy
5:53 PM 54.0 °F 21.9 °F 29% 29.93 in 10.0 mi East 10.4 mph 23.0 mph N/A   Partly Cloudy
6:53 PM 53.1 °F 21.9 °F 30% 29.95 in 10.0 mi Variable 6.9 mph 16.1 mph N/A   Clear
7:53 PM 52.0 °F 24.1 °F 34% 29.98 in 10.0 mi South 5.8 mph - N/A   Clear
8:53 PM 51.1 °F 24.1 °F 35% 29.99 in 10.0 mi Calm Calm - N/A   Overcast
9:53 PM 52.0 °F 24.1 °F 34% 30.02 in 10.0 mi SSE 4.6 mph - N/A   Overcast
10:53 PM 51.1 °F 25.0 °F 36% 30.03 in 10.0 mi SSE 4.6 mph - N/A   Overcast
11:53 PM 50.0 °F 32.0 °F 50% 30.04 in 10.0 mi SE 4.6 mph - 0.00 in Rain Light Rain